TimeMDT,TemperatureF,Dew PointF,Humidity,Sea Level PressureIn,VisibilityMPH,Wind Direction,Wind SpeedMPH,Gust SpeedMPH,PrecipitationIn,Events,Conditions,WindDirDegrees,DateUTC
12:53 AM,52.0,43.0,71,30.10,10.0,NNW,9.2,-,N/A,,Clear,340,2013-08-30 06:53:00
1:53 AM,52.0,42.1,69,30.11,10.0,NE,3.5,-,N/A,,Clear,50,2013-08-30 07:53:00
2:11 AM,51.8,42.8,71,30.38,10.0,Calm,Calm,-,N/A,,Partly Cloudy,0,2013-08-30 08:11:00
2:53 AM,48.9,42.1,77,30.10,10.0,East,3.5,-,N/A,,Clear,80,2013-08-30 08:53:00
3:53 AM,46.9,41.0,80,30.10,10.0,ESE,4.6,-,N/A,,Clear,120,2013-08-30 09:53:00
4:53 AM,45.0,39.9,82,30.11,10.0,NNE,3.5,-,N/A,,Clear,30,2013-08-30 10:53:00
5:53 AM,45.0,39.9,82,30.12,10.0,NW,6.9,-,N/A,,Clear,320,2013-08-30 11:53:00
6:53 AM,44.1,39.0,82,30.12,10.0,Calm,Calm,-,N/A,,Clear,0,2013-08-30 12:53:00
7:53 AM,51.1,42.1,71,30.14,10.0,Calm,Calm,-,N/A,,Clear,0,2013-08-30 13:53:00
8:53 AM,57.9,43.0,58,30.14,10.0,ESE,3.5,-,N/A,,Clear,110,2013-08-30 14:53:00
9:53 AM,66.9,44.1,44,30.11,10.0,Variable,3.5,-,N/A,,Clear,0,2013-08-30 15:53:00
10:53 AM,72.0,45.0,38,30.12,10.0,South,4.6,-,N/A,,Clear,190,2013-08-30 16:53:00
11:53 AM,75.9,43.0,31,30.10,10.0,Variable,4.6,-,N/A,,Clear,0,2013-08-30 17:53:00
12:11 PM,78.8,41.0,26,30.38,10.0,South,8.1,-,N/A,Thunderstorm,Clear,190,2013-08-30 18:11:00
12:53 PM,66.0,52.0,60,30.16,7.0,NW,9.2,21.9,0.01,Rain-Thunderstorm,Light Thunderstorms and Rain,310,2013-08-30 18:53:00
1:36 PM,77.0,46.4,34,30.38,10.0,NE,6.9,-,0.00,,Clear,40,2013-08-30 19:36:00
1:53 PM,78.1,44.1,30,30.09,10.0,Variable,4.6,-,0.00,,Clear,0,2013-08-30 19:53:00
2:34 PM,75.2,44.6,34,30.36,10.0,South,5.8,-,N/A,Thunderstorm,Mostly Cloudy,190,2013-08-30 20:34:00
2:53 PM,73.0,50.0,44,30.11,10.0,SSW,9.2,20.7,0.00,Rain-Thunderstorm,Light Thunderstorms and Rain,210,2013-08-30 20:53:00
3:15 PM,75.2,41.0,29,30.33,10.0,NNW,8.1,-,0.00,,Overcast,330,2013-08-30 21:15:00
3:53 PM,81.0,42.1,25,30.03,10.0,West,6.9,-,0.00,,Clear,260,2013-08-30 21:53:00
4:53 PM,81.0,39.9,23,30.01,10.0,Variable,3.5,-,N/A,,Partly Cloudy,0,2013-08-30 22:53:00
5:53 PM,79.0,39.9,25,30.02,10.0,North,15.0,-,N/A,,Mostly Cloudy,350,2013-08-30 23:53:00
6:53 PM,79.0,41.0,26,30.01,10.0,NNW,10.4,19.6,N/A,,Clear,330,2013-08-31 00:53:00
7:53 PM,72.0,41.0,33,30.02,10.0,NNW,8.1,-,N/A,,Clear,340,2013-08-31 01:53:00
8:53 PM,66.0,39.0,37,30.03,10.0,North,10.4,-,N/A,,Clear,360,2013-08-31 02:53:00
9:53 PM,55.9,41.0,57,30.04,10.0,SW,6.9,-,N/A,,Clear,220,2013-08-31 03:53:00
10:53 PM,54.0,44.1,69,30.04,10.0,WNW,5.8,-,N/A,,Clear,300,2013-08-31 04:53:00
11:53 PM,55.9,39.9,55,30.02,10.0,NNE,6.9,-,N/A,,Clear,30,2013-08-31 05:53:00